Vertical_Velocity
0 -1 -7 0 -1 -1 2 -1 1 -2 -2 -2 1 0 -2 -2 -2 -1 -1 -1 -4 -3 -2 -1 -1 -1 -1
4 1 -1 1 -5 2 5 -2 -1 -0 0 -2 2 -0 0 -0 -1 -0 2 2 0 -0 -0 -1 -1 -1 -2
3 -3 2 4 -3 -2 -0 0 -0 -0 1 -2 2 1 0 0 -0 -0 -0 0 1 0 0 0 -0 -2 -0
2 1 -2 2 -3 -0 -2 1 2 -1 1 -1 1 -1 0 1 0 1 1 1 0 -1 -1 -1 -1 -0 -0
-5 5 -1 -5 1 0 -2 1 1 -0 0 0 2 -1 -0 2 0 1 1 -0 0 0 -0 0 0 -0 -1
3 4 -2 -1 1 -0 -1 -0 -1 -2 0 1 0 0 0 -0 -0 -0 0 0 -1 -2 -1 -1 -1 -1 -1
-3 2 -0 2 1 -1 -1 -2 -0 -2 -0 0 0 -1 -1 -1 -1 0 0 -0 -1 -1 -1 -1 -1 -2 -1
-1 1 3 1 -0 -1 -0 -1 -2 -0 0 -0 1 -0 -0 -1 1 -1 -1 -2 -1 -1 -1 -2 -2 -2 -2
-1 0 2 0 -1 -1 1 -1 0 -1 1 1 0 -0 -1 -0 -2 -1 -1 -2 -2 -1 -1 -1 -0 -1 -2
1 1 1 1 -0 -1 -1 -1 1 -2 -0 0 -1 -0 -0 -0 -1 -1 -2 -1 -0 -1 -1 -1 -1 -1 -2
1 -0 1 1 -0 -0 -1 -1 -1 -0 -0 -0 -0 -0 -0 -1 -2 1 -1 -1 -1 -2 -1 0 -1 -1 -2
0 1 -0 2 0 1 -1 -1 -1 -0 1 -0 -0 0 -1 -1 -3 -1 -2 -2 -1 -1 -1 -1 -1 -2 -3
2 0 0 1 -0 1 -1 -1 0 -1 -2 -0 0 0 0 1 1 -2 -3 -2 0 -2 -1 -1 -2 -2 -1
0 1 1 2 2 1 -1 -0 -1 -3 -1 -1 -0 0 -0 1 1 -1 -2 -1 -1 -1 1 -1 -2 -3 -2
-1 1 1 1 -0 1 -0 -0 -1 -1 -2 -1 -0 -1 -1 -0 -1 -1 -1 -1 -1 -1 -1 1 -2 -3 -2
1 1 1 0 -0 0 0 -0 -1 -1 1 0 -0 -0 -1 -0 -1 -2 -1 -1 -1 -1 -2 5 1 -5 -1
0 1 1 1 2 0 -1 -1 1 1 -1 -0 -1 -0 1 -0 -1 1 -1 -2 -0 -1 -2 -3 5 -2 -2
Height
3096 3096 3096 3095 3094 3094 3094 3094 3093 3093 3092 3092 3092 3091 3091 3091 3090 3090 3090 3090 3089 3090 3090 3090 3089 3089 3088
3091 3090 3089 3090 3090 3090 3090 3091 3090 3089 3088 3088 3088 3087 3087 3087 3086 3086 3085 3085 3085 3084 3084 3085 3084 3084 3083
3084 3085 3086 3086 3086 3087 3087 3086 3085 3085 3084 3084 3083 3082 3082 3082 3082 3081 3081 3080 3080 3079 3079 3079 3079 3078 3077
3080 3080 3082 3082 3082 3082 3082 3082 3080 3080 3080 3079 3079 3078 3077 3077 3076 3076 3076 3076 3075 3074 3074 3073 3073 3073 3072
3076 3078 3077 3079 3077 3077 3077 3077 3076 3076 3075 3074 3074 3073 3072 3072 3071 3071 3070 3070 3070 3069 3069 3069 3068 3067 3066
3073 3074 3073 3073 3073 3073 3073 3072 3072 3072 3070 3070 3069 3068 3068 3068 3067 3066 3065 3065 3065 3064 3063 3063 3062 3061 3060
3069 3070 3069 3069 3069 3069 3068 3068 3068 3067 3066 3065 3065 3064 3064 3063 3062 3061 3061 3060 3059 3059 3058 3057 3056 3055 3054
3065 3065 3065 3064 3065 3065 3064 3064 3064 3063 3062 3061 3060 3059 3059 3058 3057 3056 3055 3054 3054 3053 3052 3051 3050 3049 3048
3060 3060 3060 3060 3060 3059 3059 3059 3059 3058 3057 3056 3056 3055 3054 3053 3052 3051 3050 3049 3048 3047 3045 3043 3043 3042 3042
3055 3055 3056 3055 3055 3054 3054 3054 3053 3053 3053 3052 3050 3050 3048 3047 3046 3045 3044 3043 3042 3041 3039 3038 3036 3036 3035
3050 3050 3051 3050 3050 3050 3049 3048 3048 3047 3046 3045 3044 3043 3042 3041 3040 3039 3037 3036 3035 3033 3032 3031 3030 3029 3028
3046 3045 3045 3045 3045 3044 3044 3043 3042 3041 3040 3038 3037 3037 3036 3035 3034 3032 3031 3029 3028 3026 3025 3024 3023 3021 3020
3040 3040 3040 3040 3039 3039 3038 3037 3035 3034 3032 3031 3030 3029 3029 3028 3028 3024 3023 3021 3020 3018 3018 3017 3015 3014 3013
3034 3034 3034 3034 3033 3032 3032 3031 3029 3027 3025 3024 3023 3022 3021 3020 3020 3018 3016 3014 3011 3010 3009 3008 3007 3006 3004
3028 3027 3027 3027 3026 3026 3025 3024 3022 3020 3017 3016 3015 3014 3014 3013 3012 3009 3008 3006 3004 3002 3001 3001 2999 2997 2995
3020 3020 3019 3019 3018 3018 3017 3016 3014 3012 3011 3008 3006 3006 3006 3006 3004 3002 2999 2997 2995 2994 2992 2992 2992 2988 2985
3012 3012 3011 3011 3011 3010 3009 3008 3006 3003 3001 3000 2998 2998 2998 2998 2997 2992 2991 2988 2987 2985 2983 2980 2982 2981 2977